This is the latest recevied weather packets stored in our database for station/object K3FAZ. If no packets are shown the sender has not sent any weather packets the latest 1 day(s).
| Time | Temp. | Humidity | Pressure | Rain* | Wind** | Luminosity | Snow |
|---|---|---|---|---|---|---|---|
| 1777980755 | 17.78° C | 65% | 1011.3 hPa | 0 mm | 2.24 m/s, 196° | 73 W/m² | - |
| 1777980451 | 17.78° C | 66% | 1011.2 hPa | 0 mm | 2.68 m/s, 198° | 87 W/m² | - |
| 1777980149 | 17.78° C | 66% | 1011 hPa | 0 mm | 3.58 m/s, 183° | 76 W/m² | - |
| 1777979849 | 17.22° C | 66% | 1011.1 hPa | 0 mm | 3.13 m/s, 198° | 58 W/m² | - |
| 1777979545 | 17.22° C | 67% | 1011 hPa | 0 mm | 1.79 m/s, 186° | 52 W/m² | - |
| 1777979241 | 17.22° C | 67% | 1010.8 hPa | 0 mm | 2.24 m/s, 198° | 35 W/m² | - |
| 1777978939 | 17.22° C | 66% | 1010.8 hPa | 0 mm | 1.79 m/s, 190° | 30 W/m² | - |
| 1777978635 | 17.22° C | 67% | 1011 hPa | 0 mm | 1.79 m/s, 223° | 21 W/m² | - |
| 1777978330 | 17.22° C | 66% | 1010.7 hPa | 0 mm | 3.13 m/s, 186° | 19 W/m² | - |
| 1777978028 | 17.22° C | 67% | 1010.6 hPa | 0 mm | 2.24 m/s, 194° | 17 W/m² | - |
| 1777977725 | 17.22° C | 67% | 1010.6 hPa | 0 mm | 2.24 m/s, 182° | 15 W/m² | - |
| 1777977421 | 17.22° C | 68% | 1010.7 hPa | 0 mm | 3.13 m/s, 193° | 12 W/m² | - |
| 1777977119 | 17.22° C | 68% | 1010.4 hPa | 0 mm | 1.79 m/s, 189° | 8 W/m² | - |
| 1777976816 | 16.67° C | 69% | 1010.3 hPa | 0 mm | 2.24 m/s, 186° | 6 W/m² | - |
| 1777976514 | 17.22° C | 69% | 1010.4 hPa | 0 mm | 4.92 m/s, 181° | 4 W/m² | - |
| 1777976213 | 16.67° C | 69% | 1010.4 hPa | 0 mm | 2.68 m/s, 188° | 1 W/m² | - |
| 1777975909 | 16.67° C | 69% | 1010.5 hPa | 0 mm | 1.79 m/s, 175° | 0 W/m² | - |
| 1777975605 | 16.67° C | 70% | 1010.3 hPa | 0 mm | 1.79 m/s, 206° | 0 W/m² | - |
| 1777975302 | 16.67° C | 69% | 1010.3 hPa | 0 mm | 1.34 m/s, 183° | 0 W/m² | - |
| 1777974998 | 16.67° C | 69% | 1010.1 hPa | 0 mm | 1.79 m/s, 225° | 0 W/m² | - |
| 1777974696 | 16.67° C | 69% | 1010.1 hPa | 0 mm | 2.24 m/s, 196° | 0 W/m² | - |
| 1777974391 | 16.11° C | 69% | 1009.8 hPa | 0 mm | 3.13 m/s, 204° | 0 W/m² | - |
| 1777974088 | 16.11° C | 71% | 1010 hPa | 0 mm | 0.89 m/s, 216° | 0 W/m² | - |
| 1777973784 | 16.11° C | 72% | 1010 hPa | 0 mm | 1.79 m/s, 166° | 0 W/m² | - |
| 1777973481 | 15.56° C | 72% | 1010 hPa | 0 mm | 2.68 m/s, 195° | 0 W/m² | - |
* Rain latest hour (hover to see other rain measurements)
** Current wind speed in m/s (hover to see current wind gust speed)